Regional Weather Roundup
Issued by NWS Upton, NY

Current Version | Previous Version | Graphics & Text | Print | Product List | Glossary Off
Versions: 1 2 3 4 5 6 7 8 9 10 11 12 13 14 15 16 17 18 19 20 21 22 23 24 25 26 27 28 29 30 31 32 33 34 35 36 37 38 39 40 41 42 43 44 45 46 47 48 49 50

000
ASUS41 KOKX 030505
RWROKX

REGIONAL WEATHER ROUNDUP
NATIONAL WEATHER SERVICE NEW YORK NY
1200 AM EST TUE MAR 03 2015

NOTE: "FAIR" INDICATES FEW OR NO CLOUDS BELOW 12,000 FEET WITH NO
SIGNIFICANT WEATHER AND/OR OBSTRUCTIONS TO VISIBILITY.

NYZ071-072-176-178-NJZ106-104-030600-
NEW YORK CITY METRO AREA


CITY           SKY/WX    TMP DP  RH WIND       PRES   REMARKS
CENTRAL PARK   FAIR      27   9  46 VRB6      30.39R WCI  20
LAGUARDIA APRT FAIR      28  12  51 NW13      30.37R WCI  17
KENNEDY INTL   FAIR      28   9  44 NW12      30.38R WCI  18
NEWARK/LIBERTY FAIR      27  10  49 NW14      30.39R WCI  16
BRNX BOT. GARD   N/A    N/A N/A N/A NW2       30.38R
TETERBORO      FAIR      25   9  50 NW14      30.37R WCI  13
$$

NYZ177-179-078>081-030600-
LONG ISLAND NEW YORK

CITY           SKY/WX    TMP DP  RH WIND       PRES   REMARKS
FARMINGDALE    FAIR      27  10  49 NW7       30.36R WCI  19
ISLIP          FAIR      24   9  52 W7        30.34R WCI  16
SHIRLEY        FAIR      25  10  53 NW6       30.36R WCI  18
WESTHAMPTON    FAIR      27   9  46 NW14      30.34R WCI  16
MONTAUK POINT  NOT AVBL
$$

NYZ052-065-067-030600-
HUDSON VALLEY

CITY           SKY/WX    TMP DP  RH WIND       PRES   REMARKS
WHITE PLAINS   FAIR      23   8  52 NW8       30.32R WCI  14
NEWBURGH       CLEAR     23  10  58 W12       30.34R WCI  12
MONTGOMERY     FAIR      23   7  50 NW12      30.33R WCI  12
POUGHKEEPSIE   FAIR      24   7  48 NW7       30.34R WCI  16
ALBANY         FAIR      21   6  52 NW13      30.35R WCI   9
$$

NJZ001-105-106-008-010-013-015-019>022-104-030600-
NEW JERSEY

CITY           SKY/WX    TMP DP  RH WIND       PRES   REMARKS
NEWARK/LIBERTY FAIR      27  10  49 NW14      30.39R WCI  16
TETERBORO      FAIR      25   9  50 NW14      30.37R WCI  13
CALDWELL       FAIR      24   8  50 NW9       30.38R WCI  14
MORRISTOWN     FAIR      28   9  43 NW7       30.38R WCI  21
SOMERVILLE     FAIR      27   8  44 N12       30.37R WCI  17
SUSSEX         FAIR      23   7  50 VRB5      30.36R WCI  17
ANDOVER          N/A     23   7  50 N10G18    30.36R WCI  12
TRENTON        FAIR      28   6  39 N9        30.38R WCI  19
MILLVILLE      FAIR      28  16  60 W8        30.39R WCI  20
ATLANTIC CITY  FAIR      29  15  56 W6        30.38R WCI  23
WRIGHTSTOWN    CLOUDY    27  11  50 N8        30.35R WCI  19
TOMS RIVER     FAIR      28  10  47 NW3       30.38S
BELMAR         FAIR      28   9  43 NW7       30.37R WCI  21
$$

PAZ047>061-062-071-030600-
EASTERN PENNSYLVANIA

CITY           SKY/WX    TMP DP  RH WIND       PRES   REMARKS
PHILADELPHIA   FAIR      30  14  51 W8        30.40S WCI  22
ALLENTOWN      FAIR      24   7  48 N14       30.39R WCI  12
SCRANTON       FAIR      21   7  54 NW5       30.36R WCI  15
$$

CTZ002-004>006-009-010-012-RIZ004-006-007-MAZ004-011-015-030600-
SOUTHERN NEW ENGLAND
 IN CT

CITY           SKY/WX    TMP DP  RH WIND       PRES   REMARKS
BRADLEY INTL   FAIR      24   7  48 NW8       30.30R WCI  15
HARTFORD       FAIR      25   8  48 NW6       30.33R WCI  18
DANBURY        FAIR      14   4  64 CALM      30.33R
WTRBRY/OXFORD  FAIR      23   3  42 NW8       30.30R WCI  14
BRIDGEPORT     FAIR      24  10  55 W6        30.35R WCI  17
MERIDEN        FAIR      25   8  48 NW16G23   30.33R WCI  12
NEW HAVEN      FAIR      26  10  50 NW8       30.34R WCI  18
CHESTER        FAIR      27  10  50 NW10G25   30.29S WCI  17
GROTON         FAIR      25   9  50 NW10      30.31R WCI  15
WILLIMANTIC    FAIR      23   6  48 W7        30.29R WCI  15

 IN RI

CITY           SKY/WX    TMP DP  RH WIND       PRES   REMARKS
PROVIDENCE     FAIR      23   8  52 W7        30.28R WCI  15
BLOCK ISLAND   FAIR      27   9  46 NW13G20   30.28R WCI  16
WESTERLY       FAIR      25   8  48 W6        30.31R WCI  18

 IN MA

CITY           SKY/WX    TMP DP  RH WIND       PRES   REMARKS
BOSTON         FAIR      26   7  44 NW20G33   30.25R WCI  12
WORCESTER      FAIR      19   6  57 NW6       30.20R WCI  11
WESTFIELD      FAIR      23   6  48 NW12      30.29R WCI  12
PROVINCETOWN   FAIR      28  12  50 NW26G32   30.24R WCI  13
NANTUCKET      FAIR      28  13  53 W17       30.23R WCI  16
$$

ANZ330-335-338-340-345-350-353-355-030600-
COASTAL MARINE OBSERVATIONS


STATION/POSITION TIME  SKY/WX   TEMP    WIND        PRES    VSBY  WAVE
                                AIR SEA DIR/SP/G                  HT/PER
                 (UTC)          (F)     (DEG/KT/KT) (MB)    (MI)  (FT/S)
NY HARB ENTRANCE 0500            31 38  330/ 21/ 25 1028.5          3/ 4
4S FIRE IS       NOT AVBL
20S FIRE ISLAND  0400               37              1027.0          4/ 5
23SW MTP         0500                                 N/A           4/ 4
HUDSON CANYON    NOT AVBL
EXECUTION ROCKS  NOT AVBL
WESTERN LI SOUND NOT AVBL
CENTRAL LI SOUND NOT AVBL
EASTERN LI SOUND NOT AVBL
ROBBINS REEF     0500            28                   N/A
$$


>>>>>>>>>>>>>>>>>>>>>>>>>>>> KEY <<<<<<<<<<<<<<<<<<<<<<<<<<<
>                                                          <
>     SKY/WX - SKY CONDITION/PRESENT WEATHER               <
>     TMP    - TEMPERATURE IN FAHRENHEIT                   <
>     DP     - DEWPOINT IN FAHRENHEIT                      <
>     RH     - RELATIVE HUMIDITY IN PERCENT                <
>     WIND   - DIRECTION AND SPEED IN MPH                  <
>     PRES   - MEAN SEA LEVEL PRESSURE IN INCHES OF HG     <
>     WCI    - WIND CHILL INDEX                            <
>     VSB    - VISIBILITY IN MILES                         <
>     HX     - HEAT INDEX                                  <
>     TC     - TEMPERATURE IN CELSIUS                      <
>     VRB    - VARIABLE WIND DIRECTION                     <
>                                                          <
>>>>>>>>>>>>>>>>>>>>>>>>>>>> KEY <<<<<<<<<<<<<<<<<<<<<<<<<<<





USA.gov is the U.S. government's official web portal to all federal, state and local government web resources and services.